Location: Sternwarte ZA, Rosenfeld-Brittheim
(48.2889°N, 8.6789°E)
Time: 03:56:32
(UTC+02:00)

ISS - Pass Details

Date: 25 May 2017
Orbit: 401 x 408 km, 51.6° (Epoch: 25 June)

Event Time Altitude Azimuth Distance (km) Brightness Sun altitude
Rises 00:59:52 0° 273° (W) 2,337 0.1 -20.6°
Reaches altitude 10° 01:02:01 10° 279° (W) 1,475 -0.8 -20.6°
Maximum altitude 01:05:13 46° 355° (N) 563 -2.7 -20.7°
Drops below altitude 10° 01:08:25 10° 70° (ENE) 1,472 -0.8 -20.7°
Sets 01:10:33 0° 77° (ENE) 2,331 0.2 -20.7°
